Wind_Speed
25 25 24 23 22 21 19 19 19 19 19 18 17 17 17 16 16 16 15 15 15 15 14 14 14 14 15 15 15 15 15 16 16 17 17 18 19 20 20 21 22 23 24
26 26 26 25 24 23 21 21 20 20 20 20 18 18 18 18 17 17 17 17 17 17 17 17 17 17 18 18 18 18 18 19 19 20 20 21 22 22 23 24 25 25 26
27 27 27 26 26 25 23 22 22 22 22 21 20 20 19 19 18 18 19 19 19 19 19 20 20 19 20 20 20 20 20 21 22 23 23 24 25 25 26 27 28 29 29
29 28 28 28 28 27 25 24 23 23 23 22 22 22 21 20 21 21 21 21 21 21 22 22 22 22 22 23 22 22 23 23 24 25 26 27 28 28 29 30 32 32 33
31 31 30 30 29 29 28 26 25 24 24 23 23 22 22 21 22 22 22 22 23 23 24 24 24 24 25 25 25 25 26 26 27 27 28 30 31 31 32 33 34 35 36
34 34 33 31 30 29 28 28 26 25 24 24 24 24 23 23 23 23 23 24 24 25 26 26 26 26 27 27 28 28 29 29 29 30 31 32 33 34 35 36 37 38 39
32 31 32 32 32 30 29 28 28 27 27 26 26 26 25 25 25 25 25 26 26 27 28 28 28 28 28 29 30 30 31 31 32 32 33 34 35 36 37 39 40 41 42
28 30 30 31 31 31 30 29 29 29 29 28 27 27 27 27 28 28 27 28 29 29 30 30 30 30 30 31 32 33 33 34 34 35 36 37 38 39 41 42 43 44 45
27 30 30 30 30 30 30 29 29 28 28 28 29 29 29 29 29 29 29 30 30 30 30 31 31 32 33 33 34 35 36 36 37 38 39 41 42 43 44 45 46 47 48
26 26 27 27 29 28 29 29 29 28 29 29 30 30 30 31 31 31 31 32 31 32 32 33 33 33 34 35 36 37 38 39 41 42 42 43 43 45 46 47 49 49 50
24 24 23 24 25 25 26 27 28 28 28 28 29 30 31 32 32 32 32 32 33 33 34 34 34 35 36 37 38 39 40 41 42 43 44 45 46 47 48 49 50 51 52
22 21 22 23 23 23 24 25 26 27 28 28 29 30 30 31 31 32 32 33 34 34 35 35 36 37 37 39 40 41 42 43 44 44 45 46 47 49 50 51 52 53 54
21 20 20 20 21 21 22 23 25 26 27 28 29 29 30 30 31 32 33 34 35 35 35 36 37 38 38 40 40 41 42 42 43 45 46 47 48 49 50 52 53 54 54
21 20 19 20 20 20 21 21 23 25 26 28 29 29 30 31 31 32 33 34 34 34 35 36 37 37 38 39 39 40 41 43 44 45 46 48 48 49 50 51 52 53 53
21 19 20 19 19 19 20 21 22 23 24 25 27 28 29 30 31 32 33 33 33 33 34 36 37 37 38 39 40 41 42 43 44 45 47 47 48 49 49 49 50 51 51
19 19 20 20 19 20 20 20 21 22 24 25 26 27 28 29 30 30 31 31 31 32 33 34 35 36 37 38 39 40 42 43 44 45 46 46 47 47 46 47 48 48 48
18 19 20 20 20 20 20 20 21 22 23 24 25 25 26 27 27 28 28 29 30 31 32 34 35 36 37 39 40 42 43 43 44 45 45 45 45 44 45 45 45 44 43
18 18 19 20 20 19 19 20 21 22 22 23 23 24 25 26 26 27 27 28 29 30 31 33 35 36 38 39 41 41 42 42 42 43 43 43 43 42 42 42 41 40 39
18 18 19 20 20 20 20 20 21 21 21 22 22 23 24 24 25 26 27 28 29 30 32 33 35 36 37 38 39 39 39 39 40 40 40 40 40 39 39 38 36 34 34
20 20 20 20 20 20 20 20 21 21 21 22 22 23 24 24 25 26 27 28 29 31 32 33 34 35 36 36 36 37 37 37 37 37 37 36 35 35 33 31 29 28 28
22 22 22 21 21 21 21 21 21 22 22 22 22 22 23 24 25 26 27 28 29 30 31 32 32 33 33 34 34 34 34 34 33 33 32 31 30 28 26 25 24 24 24
21 22 22 22 22 21 21 21 22 22 22 22 22 22 23 24 25 25 27 27 28 28 29 30 30 31 31 32 31 31 31 30 29 29 27 26 24 23 21 21 22 22 21
20 20 20 20 20 21 21 21 21 21 21 21 22 22 22 23 24 25 26 26 27 27 28 28 29 29 29 29 28 28 28 27 25 24 23 21 20 19 18 19 19 19 18
19 19 19 19 19 19 19 20 20 20 20 20 21 21 22 23 24 24 24 25 25 26 26 27 27 27 27 26 25 24 23 22 21 19 18 17 16 16 15 16 17 16 16
19 18 18 18 19 19 19 19 19 18 19 20 21 21 22 22 23 23 22 23 23 24 24 24 24 24 23 22 22 20 20 19 18 17 16 15 15 14 14 14 15 15 14
17 16 17 17 17 18 18 17 17 18 18 19 20 20 20 20 21 21 21 21 22 22 22 21 21 20 20 19 19 18 17 17 16 15 13 12 12 12 12 13 13 13 12
Wind_Direction
249 249 249 249 248 248 248 250 251 250 250 250 251 253 253 255 258 260 262 265 267 273 277 279 282 284 283 284 285 285 283 282 280 278 279 279 277 275 276 276 275 276 275
249 250 249 249 248 248 247 248 249 250 249 250 251 253 253 254 257 261 263 265 270 273 275 276 279 282 282 282 283 283 283 282 281 280 280 280 279 277 277 277 277 277 277
248 248 249 249 248 247 245 246 248 249 248 249 251 253 255 256 258 261 264 266 270 272 274 275 278 280 280 280 281 281 281 281 280 279 279 280 280 279 278 279 279 279 278
247 247 246 246 246 244 243 245 247 248 247 249 250 251 254 256 257 261 264 267 269 270 272 275 278 278 279 279 279 280 280 281 280 280 280 280 280 280 280 281 280 279 278
246 245 243 242 244 243 243 245 246 247 247 249 250 251 253 255 258 261 265 267 270 272 273 276 277 276 275 276 277 279 279 280 280 280 280 280 280 280 280 280 281 280 279
243 243 241 242 244 243 243 243 242 245 247 250 251 252 253 255 258 262 266 269 271 273 275 277 277 277 277 277 278 280 280 280 280 281 282 282 281 281 281 281 282 282 281
243 241 239 241 243 242 242 240 240 244 246 248 251 253 255 257 259 263 266 269 272 275 276 278 278 278 279 280 280 282 281 281 281 282 282 282 283 283 282 283 283 282 282
241 240 240 240 241 243 243 243 243 242 245 248 249 251 254 257 260 263 266 268 272 275 276 277 278 279 279 279 280 282 283 282 282 283 284 284 284 284 284 284 284 284 282
244 241 243 240 244 242 241 242 243 240 243 247 250 253 256 258 260 263 267 270 272 274 276 277 278 279 280 281 281 281 282 283 284 286 286 286 285 285 285 286 286 286 285
247 242 241 241 238 238 240 241 243 242 244 248 253 255 257 260 262 264 268 270 272 274 276 276 277 278 280 282 283 283 283 284 285 286 287 287 287 287 287 287 288 288 288
248 243 243 239 237 239 240 241 242 244 247 251 254 256 258 261 262 265 269 270 273 274 276 276 276 279 281 282 283 284 284 286 287 289 289 289 289 289 289 289 289 289 289
247 244 242 240 239 240 243 242 243 248 249 253 255 257 259 263 263 266 268 270 274 276 276 277 278 281 282 283 284 286 287 288 290 290 291 291 291 291 291 290 290 290 290
247 246 243 241 242 243 243 243 245 249 251 253 257 260 262 263 265 268 271 273 275 276 277 279 280 282 283 285 287 289 290 291 291 292 292 293 293 293 292 292 292 292 292
250 244 241 240 241 246 250 252 252 253 253 255 260 263 264 264 265 269 272 274 275 277 278 279 281 282 284 287 289 291 292 292 293 294 295 295 295 295 295 295 294 294 294
246 242 243 244 248 252 254 254 255 256 257 259 262 264 264 266 269 270 272 274 275 277 279 280 282 284 286 288 290 291 292 293 295 295 295 295 296 296 296 296 296 296 295
247 247 247 251 255 255 254 257 261 260 260 262 265 265 267 270 271 271 273 275 276 278 280 282 284 287 289 290 292 293 294 295 295 296 296 297 297 298 298 298 298 297 297
253 250 249 251 252 253 254 257 259 261 262 265 267 269 271 273 273 273 274 276 279 280 282 284 287 289 290 292 293 294 295 295 296 297 298 299 299 300 300 300 300 300 300
252 251 250 251 253 254 255 256 258 263 265 267 270 273 275 275 275 276 279 281 283 285 286 288 289 290 291 293 294 294 296 297 298 298 299 300 300 301 302 302 302 302 302
250 250 250 251 253 256 258 259 262 266 270 271 274 277 278 278 278 279 281 283 284 285 287 289 291 291 293 294 295 297 298 299 299 300 300 301 302 303 304 304 305 305 306
249 250 250 251 253 256 259 261 264 267 272 274 276 279 280 280 281 282 284 285 287 288 290 291 292 293 295 296 297 299 299 300 301 301 302 303 304 305 306 308 309 310 312
247 248 250 252 253 256 260 263 266 269 272 275 277 279 280 282 283 285 286 287 289 290 292 293 294 296 297 298 299 300 301 302 302 303 304 305 306 308 310 313 315 317 319
248 248 250 253 256 259 263 265 267 270 271 274 276 279 282 284 285 286 287 288 290 292 293 295 296 297 298 300 300 301 302 303 303 305 306 307 308 309 313 316 319 322 324
248 247 249 253 256 258 262 264 266 268 271 273 276 279 280 281 283 286 289 290 292 295 296 297 298 299 300 300 300 301 302 303 305 306 307 308 309 311 314 319 324 328 330
249 248 248 251 254 257 259 260 263 266 269 272 275 278 279 281 285 288 290 292 294 296 297 298 299 300 300 301 301 302 304 305 307 307 308 308 311 313 316 322 327 331 335
247 248 251 252 254 256 259 260 261 264 268 272 275 278 281 283 286 288 290 293 295 296 298 299 300 301 301 303 304 304 305 307 307 307 307 309 313 315 317 324 331 335 340
244 246 249 251 254 256 257 258 261 266 270 273 275 278 281 283 285 287 291 294 297 299 300 301 303 303 304 306 308 306 308 310 310 309 309 310 314 317 321 327 334 339 344
Height
5864 5865 5866 5867 5869 5870 5872 5873 5874 5874 5875 5876 5877 5878 5879 5880 5880 5880 5880 5880 5881 5881 5881 5880 5879 5879 5878 5878 5877 5876 5875 5875 5874 5873 5873 5872 5871 5871 5870 5870 5869 5868 5867
5858 5859 5861 5862 5864 5865 5867 5868 5869 5870 5871 5872 5873 5874 5875 5876 5877 5877 5877 5877 5877 5877 5877 5877 5876 5875 5875 5874 5873 5873 5872 5871 5870 5870 5869 5868 5867 5866 5866 5865 5864 5863 5862
5852 5854 5855 5857 5858 5860 5861 5863 5864 5865 5866 5868 5869 5870 5871 5872 5873 5873 5873 5873 5873 5873 5873 5872 5872 5871 5871 5870 5869 5868 5867 5867 5866 5865 5864 5863 5862 5862 5861 5860 5858 5857 5856
5846 5848 5849 5851 5852 5854 5856 5857 5859 5860 5861 5863 5864 5865 5866 5867 5868 5868 5869 5868 5868 5868 5868 5868 5867 5866 5866 5865 5864 5863 5862 5862 5861 5860 5859 5858 5857 5856 5855 5854 5852 5851 5850
5839 5841 5843 5845 5846 5848 5850 5851 5853 5855 5856 5858 5859 5860 5861 5862 5863 5863 5864 5864 5864 5863 5863 5862 5862 5861 5860 5860 5859 5858 5857 5856 5855 5854 5853 5852 5851 5849 5848 5847 5845 5843 5842
5831 5833 5836 5838 5840 5843 5844 5846 5848 5849 5851 5853 5854 5855 5856 5857 5857 5858 5858 5858 5858 5858 5857 5857 5856 5855 5855 5854 5853 5852 5851 5850 5849 5848 5846 5845 5844 5842 5841 5839 5837 5835 5834
5823 5825 5828 5831 5834 5836 5838 5840 5842 5843 5845 5847 5848 5849 5850 5851 5852 5852 5853 5852 5852 5852 5851 5851 5850 5850 5849 5848 5847 5846 5845 5844 5842 5841 5839 5838 5836 5834 5833 5831 5829 5826 5824
5816 5817 5820 5823 5826 5829 5831 5833 5835 5837 5839 5841 5842 5843 5844 5845 5845 5846 5846 5846 5846 5845 5845 5844 5844 5843 5842 5841 5840 5839 5837 5836 5835 5833 5831 5830 5828 5826 5824 5822 5819 5817 5814
5810 5812 5814 5816 5819 5821 5824 5827 5828 5830 5832 5834 5836 5837 5838 5838 5839 5840 5840 5840 5840 5839 5838 5838 5837 5836 5834 5833 5832 5831 5830 5828 5827 5825 5823 5821 5819 5816 5814 5811 5808 5805 5803
5804 5806 5808 5810 5813 5815 5818 5820 5822 5824 5826 5828 5829 5830 5831 5832 5832 5833 5833 5833 5833 5832 5831 5830 5829 5828 5827 5826 5824 5823 5821 5819 5818 5815 5813 5811 5808 5806 5803 5800 5797 5793 5790
5798 5800 5802 5804 5806 5809 5811 5813 5816 5817 5819 5821 5821 5822 5823 5824 5825 5825 5825 5826 5825 5825 5823 5822 5821 5820 5819 5818 5816 5814 5812 5810 5808 5805 5803 5800 5797 5794 5791 5788 5785 5781 5777
5793 5794 5795 5798 5801 5803 5805 5807 5809 5811 5812 5814 5815 5816 5816 5817 5817 5818 5818 5818 5817 5817 5816 5815 5813 5812 5810 5809 5807 5805 5803 5801 5798 5795 5792 5789 5786 5782 5779 5775 5772 5768 5764
5787 5788 5790 5792 5795 5797 5799 5800 5802 5804 5805 5807 5808 5809 5810 5810 5810 5810 5810 5810 5809 5808 5807 5806 5805 5803 5802 5800 5798 5796 5793 5790 5787 5784 5781 5778 5774 5770 5766 5762 5758 5754 5749
5782 5783 5786 5788 5790 5791 5793 5794 5796 5798 5799 5800 5801 5801 5802 5802 5802 5803 5802 5802 5801 5800 5799 5798 5797 5795 5793 5790 5788 5785 5783 5780 5777 5773 5770 5766 5762 5758 5753 5749 5744 5739 5734
5777 5778 5781 5782 5784 5785 5787 5788 5789 5790 5791 5792 5793 5794 5795 5795 5795 5794 5794 5794 5794 5792 5791 5790 5788 5786 5784 5781 5779 5776 5773 5769 5766 5762 5759 5755 5750 5746 5741 5736 5731 5726 5720
5771 5773 5775 5776 5778 5779 5781 5782 5783 5784 5785 5785 5786 5787 5787 5787 5787 5787 5786 5786 5785 5784 5783 5781 5779 5777 5775 5772 5769 5766 5763 5759 5755 5751 5747 5743 5738 5734 5729 5724 5718 5713 5708
5766 5768 5769 5771 5772 5774 5775 5776 5777 5778 5778 5779 5779 5779 5779 5779 5779 5779 5778 5778 5777 5776 5775 5773 5771 5768 5766 5763 5760 5756 5753 5749 5744 5740 5736 5732 5727 5722 5717 5712 5707 5701 5696
5760 5762 5763 5765 5766 5768 5769 5770 5771 5772 5772 5772 5772 5772 5772 5772 5772 5771 5771 5770 5769 5768 5766 5764 5762 5759 5756 5753 5750 5746 5742 5738 5734 5730 5725 5721 5717 5712 5707 5702 5696 5691 5686
5755 5756 5758 5759 5760 5762 5763 5764 5765 5765 5765 5766 5766 5766 5765 5765 5764 5764 5763 5762 5761 5759 5758 5756 5753 5750 5747 5744 5740 5736 5733 5729 5725 5720 5716 5711 5707 5702 5697 5692 5687 5682 5677
5749 5751 5752 5753 5754 5756 5756 5757 5758 5758 5759 5759 5759 5759 5758 5758 5757 5757 5756 5754 5753 5751 5749 5747 5744 5741 5738 5735 5731 5728 5724 5720 5716 5711 5706 5702 5698 5693 5689 5684 5680 5675 5671
5743 5745 5746 5747 5748 5749 5750 5751 5751 5752 5752 5752 5752 5752 5752 5751 5750 5749 5748 5747 5745 5743 5741 5738 5736 5733 5730 5726 5723 5719 5715 5711 5707 5703 5698 5694 5690 5686 5682 5678 5674 5670 5666
5737 5738 5739 5740 5742 5743 5744 5744 5745 5745 5745 5746 5746 5745 5745 5744 5743 5742 5741 5739 5737 5735 5733 5730 5727 5725 5721 5718 5714 5711 5707 5703 5700 5696 5692 5688 5685 5681 5678 5674 5670 5666 5662
5730 5732 5733 5734 5735 5736 5737 5738 5738 5739 5739 5739 5739 5739 5738 5738 5736 5735 5733 5732 5730 5727 5725 5723 5720 5717 5713 5710 5707 5704 5700 5697 5693 5690 5686 5683 5680 5677 5674 5671 5667 5663 5660
5724 5726 5727 5728 5730 5731 5731 5732 5732 5733 5733 5733 5733 5733 5732 5731 5729 5728 5726 5724 5722 5720 5718 5715 5712 5709 5706 5703 5700 5697 5694 5691 5688 5685 5682 5679 5676 5674 5671 5668 5665 5661 5658
5719 5720 5721 5723 5724 5725 5726 5726 5727 5727 5727 5727 5727 5726 5725 5724 5723 5721 5720 5718 5716 5713 5711 5708 5705 5703 5700 5697 5694 5692 5689 5686 5683 5681 5678 5676 5673 5671 5669 5666 5663 5659 5656
5713 5715 5716 5718 5719 5719 5720 5721 5721 5721 5722 5721 5721 5720 5719 5718 5717 5715 5714 5712 5709 5707 5704 5702 5699 5697 5694 5692 5689 5687 5684 5682 5679 5677 5675 5673 5671 5669 5667 5664 5661 5658 5655